Stations météo

Publicité
Dijon, France (7280): Température de l'air & dewpoint: 17.05.2018 22:00:00 - 23.05.2018 22:00:00 (CEST)Dijon, France (7280): Température de l'air 5cm: 17.05.2018 22:00:00 - 23.05.2018 22:00:00 (CEST)Dijon, France (7280): Température de l'air -20cm & Température de l'air -100cm: 17.05.2018 22:00:00 - 23.05.2018 22:00:00 (CEST)Dijon, France (7280): Vitesse du vent & gusts: 17.05.2018 22:00:00 - 23.05.2018 22:00:00 (CEST)Dijon, France (7280): Direction du vent: 17.05.2018 22:00:00 - 23.05.2018 22:00:00 (CEST)Dijon, France (7280): reduced air pressure: 17.05.2018 22:00:00 - 23.05.2018 22:00:00 (CEST)Dijon, France (7280): visibility: 17.05.2018 22:00:00 - 23.05.2018 22:00:00 (CEST)Dijon, France (7280): Ensoleillement: 17.05.2018 22:00:00 - 23.05.2018 22:00:00 (CEST)Dijon, France (7280): Quantités de précipitations: 17.05.2018 22:00:00 - 23.05.2018 22:00:00 (CEST)
Date & Time tt [°C] td [°C] tt 5cm [°C] tt -20cm [°C] tt -100cm [°C] ff [km/h] ff [knt] fx [km/h] fx [knt] dd ppp [hPa] vv [km] sd [min] rr [mm]
23.05.2018 22:00:00 15,9 13,6 13,3 16,5 13,5 3 1 9 5 N 1017,9 12 0 0,0
23.05.2018 21:00:00 18,1 14,0 16,6 16,4 13,4 4 2 8 5 S 1017,4 60 1 0,0
23.05.2018 20:00:00 19,0 14,5 18,4 16,3 13,5 5 3 12 6 SSE 1016,9 19 5 0,0
23.05.2018 19:00:00 19,9 14,9 19,3 16,2 13,5 3 2 14 7 SSE 1016,6 19 4 0,0
23.05.2018 18:00:00 20,4 15,6 20,2 16,1 13,5 11 6 18 10 SE 1016,6 58 13 0,0
23.05.2018 17:00:00 20,5 15,1 22,0 16,0 13,4 10 6 18 10 SE 1016,4 59 37 0,0
23.05.2018 16:00:00 21,9 15,0 22,9 16,0 13,5 9 5 16 9 ESE 1016,8 57 43 0,0
23.05.2018 15:00:00 20,9 15,0 23,2 15,9 13,4 8 4 15 8 ESE 1017,2 54 45 0,0
23.05.2018 14:00:00 20,7 15,5 22,0 15,9 13,4 9 5 18 10 ESE 1017,3 19 43 0,0
23.05.2018 13:00:00 19,1 15,0 19,5 15,9 13,4 8 4 14 8 SE 1017,7 20 23 0,0
23.05.2018 12:00:00 17,4 15,2 17,3 15,9 13,4 6 3 10 5 ESE 1018,2 20 0 0,0
23.05.2018 11:00:00 16,3 14,3 16,8 16,0 13,4 5 3 9 5 E 1018,1 19 0 0,0
23.05.2018 10:00:00 15,5 14,4 16,5 16,0 13,4 6 3 13 7 ESE 1017,9 14 0 0,0
23.05.2018 09:00:00 15,1 14,0 14,6 16,1 13,4 3 2 8 4 E 1017,5 15 3 0,0
23.05.2018 08:00:00 13,6 13,3 12,3 16,2 13,4 5 3 8 4 WNW 1017,2 19 0 0,0
23.05.2018 07:00:00 11,7 11,5 9,5 16,3 13,4 5 3 8 4 W 1017,0 10 0 0,2
23.05.2018 06:00:00 10,6 10,3 9,5 16,3 13,4 0 0 9 5 N 1016,8 0,3 0 0,0
23.05.2018 05:00:00 11,2 10,9 9,7 16,4 13,4 3 1 4 2 N 1016,3 0,2 0 0,0
23.05.2018 04:00:00 12,0 11,7 9,4 16,5 13,4 0 0 2 1 N 1016,2 0,2 0 0,0
23.05.2018 03:00:00 12,4 11,9 10,9 16,5 13,4 0 0 12 7 N 1016,0 2,2 0 0,0
23.05.2018 02:00:00 12,9 12,1 13,0 16,5 13,4 6 4 10 5 SE 1015,8 14 0 0,0
23.05.2018 01:00:00 14,3 12,8 13,2 16,5 13,4 6 3 11 6 WSW 1015,6 55 0 0,0
23.05.2018 00:00:00 14,6 13,0 13,4 16,5 13,4 3 1 5 3 W 1015,6 59 0 0,0
22.05.2018 23:00:00 14,6 13,1 14,5 16,5 13,4 4 2 9 5 W 1015,4 57 0 0,0
22.05.2018 22:00:00 15,1 13,3 15,2 16,5 13,4 5 3 18 10 ENE 1015,0 53 0 0,0
22.05.2018 21:00:00 16,0 13,5 16,8 16,4 13,4 13 7 29 15 E 1014,0 52 31 0,0
22.05.2018 20:00:00 18,5 13,6 19,8 16,3 13,3 14 8 29 16 ENE 1012,6 14 35 0,0
22.05.2018 19:00:00 22,1 13,4 20,9 16,2 13,3 5 3 12 6 ENE 1011,8 60 35 0,0
22.05.2018 18:00:00 22,4 14,3 20,5 16,1 13,3 10 5 17 9 NW 1011,5 60 4 0,0
22.05.2018 17:00:00 21,8 13,9 21,1 16,0 13,4 4 2 13 7 WNW 1011,5 60 10 0,0
22.05.2018 16:00:00 21,8 13,9 21,2 15,9 13,3 5 3 17 9 N 1011,8 20 10 0,0
22.05.2018 15:00:00 22,6 13,1 23,8 15,8 13,3 3 1 14 8 NNE 1011,8 19 48 0,0
22.05.2018 14:00:00 22,4 13,7 21,9 15,7 13,3 6 3 13 7 WNW 1012,2 20 38 0,0
22.05.2018 13:00:00 20,9 14,1 21,2 15,7 13,3 0 0 12 7 N 1012,6 51 0 0,0
22.05.2018 12:00:00 20,8 12,5 22,4 15,7 13,3 8 4 14 8 NNE 1012,6 48 22 0,0
22.05.2018 11:00:00 20,1 13,8 21,2 15,7 13,3 4 2 10 6 ESE 1012,7 60 60 0,0
22.05.2018 10:00:00 19,8 13,0 19,2 15,7 13,3 3 2 9 5 NE 1012,6 38 60 0,0
22.05.2018 09:00:00 17,1 12,0 14,0 15,8 13,3 5 3 10 5 N 1012,8 19 28 0,0
22.05.2018 08:00:00 13,1 11,7 11,9 15,9 13,3 4 2 8 4 NNW 1013,2 19 5 0,0
22.05.2018 07:00:00 11,2 10,6 10,2 16,0 13,3 2 1 8 5 WNW 1013,1 19 8 0,0
22.05.2018 06:00:00 10,1 9,5 9,1 16,1 13,3 7 4 13 7 S 1012,9 18 0 0,0
22.05.2018 05:00:00 10,5 9,3 10,5 16,2 13,3 8 5 12 7 NNW 1012,5 20 0 0,0
22.05.2018 04:00:00 11,6 10,7 9,6 16,2 13,3 6 4 10 5 N 1012,4 20 0 0,0
22.05.2018 03:00:00 11,6 10,0 9,9 16,3 13,3 6 3 8 4 NW 1012,0 20 0 0,0
22.05.2018 02:00:00 12,4 10,5 10,9 16,3 13,3 6 3 8 4 NNW 1011,9 20 0 0,0
22.05.2018 01:00:00 13,2 11,3 10,4 16,3 13,3 8 4 10 5 NNW 1012,0 20 0 0,0
22.05.2018 00:00:00 13,6 11,1 11,8 16,3 13,3 6 3 11 6 NW 1012,1 48 0 0,0
21.05.2018 23:00:00 15,4 11,8 13,3 16,3 13,3 7 4 11 6 N 1012,1 59 0 0,0
21.05.2018 22:00:00 15,5 11,9 14,6 16,2 13,3 9 5 25 13 NNW 1011,9 54 0 0,0
21.05.2018 21:00:00 18,9 11,7 16,6 16,1 13,3 16 9 30 16 NW 1011,5 60 0 0,0
21.05.2018 20:00:00 19,2 12,2 17,9 16,0 13,2 11 6 20 11 NNE 1010,8 60 0 0,0
21.05.2018 19:00:00 20,1 11,8 19,5 15,9 13,3 14 8 26 14 N 1010,7 58 14 0,0
21.05.2018 18:00:00 23,5 10,5 23,1 15,7 13,3 4 2 12 6 E 1010,3 60 60 0,0
21.05.2018 17:00:00 23,8 11,8 23,6 15,5 13,2 3 1 18 10 S 1010,4 60 51 0,0
21.05.2018 16:00:00 23,6 11,0 24,3 15,4 13,2 8 4 19 10 ESE 1011,1 56 58 0,0
21.05.2018 15:00:00 22,7 12,6 24,6 15,3 13,2 9 5 27 15 ESE 1011,8 20 57 0,0
21.05.2018 14:00:00 22,4 13,2 25,1 15,2 13,2 10 5 21 12 ESE 1012,2 26 60 0,0
21.05.2018 13:00:00 21,6 13,8 24,7 15,2 13,2 7 4 20 11 SSE 1012,8 17 60 0,0
21.05.2018 12:00:00 20,5 14,6 22,5 15,2 13,2 7 4 16 9 SE 1013,1 20 60 0,0
21.05.2018 11:00:00 18,7 14,6 20,8 15,2 13,2 6 3 13 7 SE 1013,4 19 60 0,0
21.05.2018 10:00:00 17,6 13,7 17,2 15,2 13,2 6 3 11 6 ESE 1013,8 18 60 0,0
21.05.2018 09:00:00 15,9 12,6 14,5 15,3 13,2 2 1 6 4 N 1014,0 16 60 0,0
21.05.2018 08:00:00 13,3 11,5 9,4 15,4 13,2 3 1 7 4 N 1014,6 19 53 0,0
21.05.2018 07:00:00 8,7 8,2 7,4 15,5 13,2 2 1 10 5 NW 1014,9 15 0 0,0
21.05.2018 06:00:00 8,8 7,9 6,9 15,6 13,2 4 2 9 5 NW 1014,6 16 0 0,0
21.05.2018 05:00:00 9,3 8,4 7,6 15,7 13,2 5 3 10 5 NW 1014,4 19 0 0,0
21.05.2018 04:00:00 9,6 8,7 8,1 15,8 13,2 8 5 11 6 NW 1014,3 18 0 0,0
21.05.2018 03:00:00 10,7 9,3 8,7 15,9 13,2 7 4 11 6 NNW 1014,4 20 0 0,0
21.05.2018 02:00:00 11,1 9,2 9,0 15,9 13,2 5 3 9 5 WNW 1014,7 20 0 0,0
21.05.2018 01:00:00 12,4 10,1 9,6 15,9 13,2 6 4 9 5 NW 1014,8 20 0 0,0
21.05.2018 00:00:00 12,6 10,7 10,0 15,9 13,2 8 4 12 6 NW 1015,0 20 0 0,0
20.05.2018 23:00:00 12,6 10,3 10,7 15,9 13,2 7 4 13 7 N 1015,3 20 0 0,0
20.05.2018 22:00:00 13,4 10,7 12,6 15,9 13,2 10 5 14 7 N 1015,3 20 0 0,0
20.05.2018 21:00:00 16,2 10,7 14,8 15,8 13,2 8 4 20 11 N 1014,7 20 54 0,0
20.05.2018 20:00:00 18,2 10,3 17,6 15,7 13,2 11 6 30 16 NNE 1014,5 20 60 0,0
20.05.2018 19:00:00 19,6 10,6 19,8 15,7 13,2 15 8 33 18 NE 1014,3 20 57 0,0
20.05.2018 18:00:00 20,3 10,4 20,9 15,6 13,2 22 12 41 22 NNE 1014,4 20 60 0,0
20.05.2018 17:00:00 20,9 10,1 21,7 15,5 13,2 24 13 39 21 N 1014,7 20 58 0,0
20.05.2018 16:00:00 21,3 9,8 21,6 15,3 13,2 24 13 41 22 NNE 1015,4 20 52 0,0
20.05.2018 15:00:00 21,9 10,7 22,7 15,2 13,1 18 10 33 18 NNE 1015,8 20 54 0,0
20.05.2018 14:00:00 21,4 10,2 22,4 15,2 13,1 16 9 35 19 NNE 1016,6 19 56 0,0
20.05.2018 13:00:00 20,4 10,8 22,9 15,1 13,1 16 9 29 15 NNE 1017,2 20 60 0,0
20.05.2018 12:00:00 19,6 11,9 21,6 15,1 13,1 13 7 27 15 NNE 1017,6 19 60 0,0
20.05.2018 11:00:00 18,2 11,5 19,9 15,2 13,1 14 7 26 14 NNE 1017,9 20 60 0,0
20.05.2018 10:00:00 17,3 10,4 17,7 15,2 13,1 12 7 24 13 NE 1018,4 20 60 0,0
20.05.2018 09:00:00 15,7 10,0 14,7 15,3 13,1 12 6 24 13 NNE 1018,7 19 60 0,0
20.05.2018 08:00:00 13,3 9,2 11,3 15,3 13,1 12 7 22 12 N 1018,6 19 60 0,0
20.05.2018 07:00:00 11,9 8,6 9,9 15,4 13,1 12 7 18 10 N 1018,3 18 35 0,0
20.05.2018 06:00:00 11,0 7,9 8,7 15,5 13,1 11 6 16 9 N 1018,4 20 0 0,0
20.05.2018 05:00:00 9,9 7,3 7,9 15,6 13,1 10 6 15 8 N 1018,3 20 0 0,0
20.05.2018 04:00:00 9,4 6,8 8,8 15,6 13,1 9 5 13 7 N 1018,4 20 0 0,0
20.05.2018 03:00:00 11,8 7,3 10,2 15,7 13,1 8 4 14 8 N 1018,5 20 0 0,0
20.05.2018 02:00:00 12,5 7,4 10,5 15,7 13,1 11 6 16 9 N 1018,6 20 0 0,0
20.05.2018 01:00:00 12,6 7,9 10,9 15,7 13,0 12 6 16 9 N 1018,8 20 0 0,0
20.05.2018 00:00:00 12,7 8,4 11,2 15,7 13,1 9 5 12 7 N 1018,9 20 0 0,0
19.05.2018 23:00:00 12,9 9,3 11,9 15,7 13,1 10 6 17 9 NNW 1018,8 31 0 0,0
19.05.2018 22:00:00 14,6 9,6 12,5 15,7 13,0 9 5 13 7 N 1018,4 43 0 0,0
19.05.2018 21:00:00 17,6 9,5 15,8 15,6 13,1 11 6 22 12 N 1017,5 43 28 0,0
19.05.2018 20:00:00 19,6 8,9 18,1 15,5 13,1 14 8 26 14 N 1017,1 50 60 0,0
19.05.2018 19:00:00 20,7 8,7 20,1 15,4 13,1 16 9 29 16 N 1016,6 20 58 0,0
19.05.2018 18:00:00 21,7 9,9 21,9 15,3 13,1 15 8 24 13 N 1016,6 19 60 0,0
19.05.2018 17:00:00 21,9 9,8 21,8 15,2 13,1 11 6 30 16 N 1016,9 20 53 0,0
19.05.2018 16:00:00 21,5 9,7 21,0 15,0 13,0 10 6 27 15 NE 1017,0 20 52 0,0
19.05.2018 15:00:00 21,3 10,5 22,3 14,9 13,0 12 7 27 14 NNE 1017,3 20 56 0,0
19.05.2018 14:00:00 20,6 10,4 22,7 14,8 13,0 13 7 23 13 N 1017,8 19 60 0,0
19.05.2018 13:00:00 19,5 11,3 22,2 14,8 13,0 12 6 24 13 NNE 1018,4 17 60 0,0
19.05.2018 12:00:00 18,2 11,0 20,3 14,8 13,1 12 6 22 12 N 1018,7 16 60 0,0
19.05.2018 11:00:00 16,7 9,4 17,8 14,8 13,0 10 5 18 10 N 1019,0 16 60 0,0
19.05.2018 10:00:00 15,2 9,1 15,5 14,9 13,0 11 6 17 9 N 1019,1 17 60 0,0
19.05.2018 09:00:00 13,7 8,3 13,1 15,0 13,0 13 7 20 11 N 1019,2 20 60 0,0
19.05.2018 08:00:00 12,3 8,2 9,7 15,1 13,0 11 6 19 11 N 1019,0 16 60 0,0
19.05.2018 07:00:00 9,7 6,6 8,2 15,1 13,0 9 5 14 7 NNW 1018,9 20 15 0,0
19.05.2018 06:00:00 8,5 5,9 8,3 15,2 13,0 10 5 12 7 NNW 1018,6 20 0 0,0
19.05.2018 05:00:00 9,3 6,4 8,6 15,3 13,0 10 6 13 7 NNW 1018,4 20 0 0,0
19.05.2018 04:00:00 9,5 6,4 8,6 15,3 13,0 11 6 14 7 NNW 1018,6 20 0 0,0
19.05.2018 03:00:00 9,5 6,4 8,8 15,4 13,0 11 6 16 8 NNW 1018,8 20 0 0,0
19.05.2018 02:00:00 10,8 6,7 9,4 15,4 13,0 11 6 18 10 NNW 1019,1 20 0 0,0
19.05.2018 01:00:00 11,1 7,2 9,5 15,4 13,0 10 5 14 8 NNW 1019,4 20 0 0,0
19.05.2018 00:00:00 12,3 7,8 11,0 15,4 13,0 11 6 23 12 NNW 1019,5 20 0 0,0
18.05.2018 23:00:00 14,0 8,8 12,5 15,4 13,0 15 8 27 14 NNW 1019,2 20 0 0,0
18.05.2018 22:00:00 14,8 9,6 12,9 15,4 13,0 13 7 22 12 NNW 1018,9 43 0 0,0
18.05.2018 21:00:00 16,5 9,9 14,8 15,3 13,0 10 6 21 11 N 1018,1 56 41 0,0
18.05.2018 20:00:00 19,3 9,2 17,9 15,2 13,0 15 8 27 14 N 1017,6 20 60 0,0
18.05.2018 19:00:00 20,5 8,5 20,0 15,1 13,0 16 9 27 15 N 1017,3 18 60 0,0
18.05.2018 18:00:00 21,3 9,5 21,7 14,9 12,9 15 8 31 17 NNE 1017,0 20 60 0,0
18.05.2018 17:00:00 21,4 9,9 22,1 14,8 13,0 18 10 29 15 NNE 1017,1 19 60 0,0
18.05.2018 16:00:00 20,9 10,1 21,8 14,7 13,0 15 8 30 16 NNE 1017,6 20 60 0,0
18.05.2018 15:00:00 20,8 10,6 22,4 14,6 13,0 12 6 26 14 NNE 1018,1 19 60 0,0
18.05.2018 14:00:00 20,5 11,1 22,5 14,5 13,0 14 7 25 14 NNE 1018,5 18 60 0,0
18.05.2018 13:00:00 19,6 10,6 21,9 14,5 13,0 14 7 27 14 N 1019,2 19 60 0,0
18.05.2018 12:00:00 18,5 12,3 20,2 14,5 12,9 11 6 20 11 N 1019,6 14 60 0,0
18.05.2018 11:00:00 17,0 11,9 18,0 14,5 13,0 11 6 21 11 N 1019,8 15 60 0,0
18.05.2018 10:00:00 15,4 10,2 14,9 14,6 13,0 13 7 23 12 N 1019,8 19 60 0,0
18.05.2018 09:00:00 13,7 8,5 12,9 14,6 12,9 16 8 24 13 N 1020,0 18 60 0,0
18.05.2018 08:00:00 12,9 8,8 8,9 14,7 12,9 10 5 16 8 N 1019,9 18 60 0,0
18.05.2018 07:00:00 9,2 7,5 7,5 14,8 13,0 10 6 13 7 NNW 1019,9 19 29 0,0
18.05.2018 06:00:00 8,4 5,9 7,7 14,8 12,9 9 5 12 7 NNW 1019,8 20 0 0,0
18.05.2018 05:00:00 8,9 6,5 8,1 14,9 13,0 7 4 13 7 NNW 1019,7 20 0 0,0
18.05.2018 04:00:00 10,5 7,2 8,7 14,9 12,9 9 5 17 9 N 1019,5 20 0 0,0
18.05.2018 03:00:00 9,5 7,6 8,9 15,0 13,0 9 5 16 8 NNW 1019,6 20 0 0,0
18.05.2018 02:00:00 9,6 7,7 9,0 15,0 13,0 9 5 12 7 NNW 1019,7 20 0 0,0
18.05.2018 01:00:00 10,9 7,9 9,9 15,0 12,9 11 6 15 8 N 1020,0 20 0 0,0
18.05.2018 00:00:00 12,9 9,3 11,1 15,0 12,9 10 5 17 9 N 1019,8 20 0 0,0
17.05.2018 23:00:00 12,8 10,5 11,4 15,0 12,9 9 5 16 9 NNW 1019,9 20 0 0,0
17.05.2018 22:00:00 13,7 11,6 12,3 14,9 12,9 13 7 21 11 NNW 1019,7 29 0 0,0

tt = Température de l'air
td = dewpoint
tt 5cm = Température de l'air 5cm
tt -20cm = Température de l'air -20cm
tt -100cm = Température de l'air -100cm
ff = Vitesse du vent
fx = gusts
dd = Direction du vent
ppp = reduced air pressure
vv = visibility
sd = Ensoleillement
rr = Quantités de précipitations

stations d'obs. à proximité